PDT,Max TemperatureF,Mean TemperatureF,Min TemperatureF,Max Dew PointF,MeanDew PointF,Min DewpointF,Max Humidity, Mean Humidity, Min Humidity, Max Sea Level PressureIn, Mean Sea Level PressureIn, Min Sea Level PressureIn, Max VisibilityMiles, Mean VisibilityMiles, Min VisibilityMiles, Max Wind SpeedMPH, Mean Wind SpeedMPH, Max Gust SpeedMPH,PrecipitationIn, CloudCover, Events, WindDirDegrees
2012-10-1,100,78,55,52,47,44,80,49,17,30.01,29.95,29.89,10,10,9,16,6,22,0.00,0,,74
2012-10-2,101,81,60,53,46,41,67,42,16,29.91,29.86,29.81,10,10,8,17,8,21,0.00,0,,119
2012-10-3,76,66,55,57,54,49,87,70,53,30.06,29.95,29.87,9,8,6,23,9,28,0.00,3,,311
2012-10-4,69,64,58,56,54,53,87,73,59,30.18,30.12,30.04,10,8,7,15,8,20,0.00,5,,315
2012-10-5,75,67,58,56,54,53,86,66,46,30.20,30.14,30.08,10,9,7,16,5,21,0.00,4,,268
2012-10-6,75,64,52,53,51,47,89,65,41,30.10,30.05,29.99,10,10,9,17,6,28,0.00,0,,264
2012-10-7,73,62,51,51,49,46,89,65,41,30.05,30.01,29.98,10,10,9,17,6,22,0.00,0,,284
2012-10-8,73,62,51,54,51,47,86,65,44,30.08,30.05,30.03,10,10,6,17,6,21,0.00,1,,305
2012-10-9,75,62,48,55,51,45,93,66,38,30.07,30.02,29.97,10,10,7,17,5,21,T,3,,268
2012-10-10,70,62,53,56,53,50,93,75,57,30.00,29.97,29.92,10,10,9,17,5,22,T,6,Rain,275
2012-10-11,62,58,54,54,52,50,86,78,69,30.02,29.97,29.93,10,9,6,13,5,18,0.05,8,Rain,258
2012-10-12,66,60,53,55,53,50,93,77,60,30.25,30.13,29.99,10,8,4,12,3,15,0.00,6,,264
2012-10-13,76,62,48,53,49,46,93,66,38,30.32,30.25,30.18,10,6,0,17,4,22,0.00,2,Fog,150
2012-10-14,73,62,51,57,53,47,89,71,53,30.24,30.16,30.09,10,10,7,15,5,28,0.00,0,,299
2012-10-15,76,65,53,57,55,50,93,72,50,30.10,30.05,29.97,10,6,0,18,6,22,0.00,2,Fog,332
2012-10-16,81,68,54,61,57,52,93,71,49,30.03,29.97,29.91,10,9,7,17,6,41,0.00,0,,280
2012-10-17,90,72,53,57,50,30,93,53,12,29.92,29.88,29.82,10,9,7,17,5,21,0.00,0,,123
2012-10-18,90,75,59,63,50,38,87,54,21,30.07,29.96,29.88,10,10,10,21,13,25,0.00,1,,15
2012-10-19,72,65,57,63,60,55,93,85,76,30.09,30.03,29.94,10,7,2,16,6,20,0.00,7,,265
2012-10-20,65,60,55,56,54,46,93,80,67,29.97,29.91,29.86,10,6,2,20,8,23,0.00,6,,244
2012-10-21,64,58,51,46,45,43,77,63,48,30.00,29.94,29.90,10,10,9,15,7,18,0.00,2,,253
2012-10-22,64,58,51,55,50,45,83,68,52,30.02,29.92,29.84,10,9,2,24,10,29,0.12,6,Rain,221
2012-10-23,65,58,50,47,44,40,80,62,43,30.09,30.05,29.99,10,10,8,17,7,29,0.01,3,Rain,136
2012-10-24,68,56,44,52,45,39,86,67,48,30.23,30.16,30.09,10,10,10,20,7,23,T,4,,111
2012-10-25,73,63,52,55,49,45,77,59,41,30.25,30.22,30.17,10,10,10,17,7,22,0.00,4,,130
2012-10-26,78,62,45,49,43,34,86,53,20,30.25,30.18,30.11,10,10,10,16,4,21,0.00,0,,286
2012-10-27,84,67,49,55,48,41,83,57,30,30.10,30.04,29.97,10,10,9,15,4,17,0.00,0,,255
2012-10-28,80,66,51,55,52,46,93,65,37,30.06,30.01,29.96,10,8,0,16,5,20,0.00,2,Fog,298
2012-10-29,79,66,53,55,53,51,93,68,43,30.14,30.09,30.06,10,4,0,18,6,24,0.00,5,Fog,283
2012-10-30,76,64,51,55,52,49,96,67,38,30.13,30.06,30.00,10,4,0,18,5,22,0.00,6,Fog,172
2012-10-31,63,60,56,54,53,52,93,83,72,30.10,30.04,30.00,10,8,2,12,5,14,0.01,6,,254